LHX71B EDDH-EGLL

Flight info

Callsign LHX71B
Flight time N/A
Altitude 38000
Route WSN5G WSN N125 ITMIZ DCT ABNED L980 LOGAN
Aircraft A319/M-SDE3FGHIRWY/LB1

Departure

Time 2026-05-06 16:03
Airport Hamburg Helmut Schmidt Airport (EDDH)

Arrival

Time N/A
Airport London Heathrow Airport (EGLL)
Time Latitude Longitude Altitude Speed Heading
2026-05-06 15:26 53.63415 10.00363 49 ft 0 kts 86°
2026-05-06 15:51 53.63414 10.00339 45 ft 3 kts 86°
2026-05-06 15:51 53.63412 10.00305 44 ft 3 kts 85°
2026-05-06 15:51 53.63411 10.00272 47 ft 3 kts 85°
2026-05-06 15:52 53.63409 10.00238 49 ft 3 kts 85°
2026-05-06 15:52 53.63408 10.00205 49 ft 3 kts 96°
2026-05-06 15:52 53.63412 10.00173 45 ft 3 kts 128°
2026-05-06 15:52 53.63426 10.00154 48 ft 2 kts 172°
2026-05-06 15:53 53.63430 10.00153 49 ft 0 kts 175°
2026-05-06 15:56 53.63403 10.00157 49 ft 6 kts 175°
2026-05-06 15:57 53.63355 10.00163 49 ft 8 kts 175°
2026-05-06 15:57 53.63291 10.00171 49 ft 11 kts 176°
2026-05-06 15:57 53.63207 10.00182 49 ft 12 kts 175°
2026-05-06 15:57 53.63126 10.00191 48 ft 11 kts 176°
2026-05-06 15:58 53.63059 10.00174 47 ft 10 kts 207°
2026-05-06 15:58 53.63003 10.00113 48 ft 8 kts 213°
2026-05-06 15:58 53.62946 10.00053 49 ft 12 kts 215°
2026-05-06 15:58 53.62903 9.99934 47 ft 11 kts 243°
2026-05-06 15:59 53.62892 9.99899 44 ft 0 kts 242°
2026-05-06 16:01 53.62875 9.99845 43 ft 11 kts 242°
2026-05-06 16:01 53.62860 9.99753 45 ft 5 kts 309°
2026-05-06 16:02 53.62871 9.99741 43 ft 0 kts 332°
2026-05-06 16:02 53.62877 9.99736 44 ft 6 kts 333°
2026-05-06 16:02 53.63173 9.99483 47 ft 90 kts 333°
2026-05-06 16:03 53.63943 9.98817 52 ft 156 kts 333°
2026-05-06 16:03 53.64940 9.97962 669 ft 159 kts 336°
2026-05-06 16:03 53.65938 9.97110 1435 ft 167 kts 339°
2026-05-06 16:03 53.67047 9.96192 1932 ft 189 kts 340°
2026-05-06 16:04 53.68291 9.95149 2437 ft 208 kts 339°
2026-05-06 16:04 53.69612 9.94020 3272 ft 215 kts 339°
2026-05-06 16:04 53.70876 9.92604 4209 ft 228 kts 314°
2026-05-06 16:04 53.71490 9.90087 5043 ft 248 kts 275°
2026-05-06 16:05 53.71238 9.87059 5599 ft 274 kts 255°
2026-05-06 16:05 53.70651 9.83938 6540 ft 283 kts 251°
2026-05-06 16:05 53.69973 9.80844 7563 ft 287 kts 249°
2026-05-06 16:05 53.69257 9.77640 8648 ft 290 kts 250°
2026-05-06 16:06 53.68559 9.74436 9744 ft 292 kts 251°
2026-05-06 16:06 53.67868 9.71150 10446 ft 308 kts 251°
2026-05-06 16:06 53.67150 9.67627 11011 ft 324 kts 251°
2026-05-06 16:06 53.66423 9.63988 11876 ft 330 kts 251°
2026-05-06 16:07 53.65690 9.60295 12798 ft 334 kts 249°
2026-05-06 16:07 53.64696 9.56742 13670 ft 337 kts 237°
2026-05-06 16:07 53.63353 9.53487 14488 ft 339 kts 232°
2026-05-06 16:07 53.61969 9.50260 15332 ft 341 kts 232°
2026-05-06 16:08 53.60576 9.47020 16148 ft 343 kts 233°
2026-05-06 16:08 53.59169 9.43754 16954 ft 346 kts 233°
2026-05-06 16:08 53.57755 9.40464 17738 ft 349 kts 233°
2026-05-06 16:08 53.56322 9.37132 18487 ft 353 kts 233°
2026-05-06 16:09 53.54875 9.33776 19182 ft 356 kts 233°
2026-05-06 16:09 53.53414 9.30393 19846 ft 359 kts 233°
2026-05-06 16:09 53.51959 9.27020 20543 ft 363 kts 233°
2026-05-06 16:09 53.50468 9.23570 21250 ft 367 kts 233°
2026-05-06 16:10 53.48959 9.20092 21946 ft 370 kts 233°
2026-05-06 16:10 53.47412 9.16537 22622 ft 374 kts 233°
2026-05-06 16:10 53.45868 9.12996 23273 ft 378 kts 233°
2026-05-06 16:10 53.44331 9.09475 23837 ft 381 kts 233°
2026-05-06 16:11 53.42759 9.05872 24383 ft 384 kts 233°
2026-05-06 16:11 53.41156 9.02197 24929 ft 387 kts 233°
2026-05-06 16:11 53.39560 8.98542 25449 ft 390 kts 233°
2026-05-06 16:11 53.37949 8.94865 25983 ft 393 kts 233°
2026-05-06 16:12 53.36329 8.91170 26502 ft 395 kts 233°
2026-05-06 16:12 53.34870 8.87249 27044 ft 400 kts 245°
2026-05-06 16:12 53.33825 8.82926 27590 ft 403 kts 248°
2026-05-06 16:12 53.32794 8.78544 28151 ft 406 kts 248°
2026-05-06 16:13 53.31772 8.74188 28688 ft 409 kts 248°
2026-05-06 16:13 53.30734 8.69754 29210 ft 411 kts 248°
2026-05-06 16:13 53.29691 8.65282 29723 ft 414 kts 248°
2026-05-06 16:13 53.28640 8.60781 30166 ft 417 kts 248°
2026-05-06 16:14 53.27587 8.56262 30583 ft 419 kts 248°
2026-05-06 16:14 53.26526 8.51725 31001 ft 420 kts 248°
2026-05-06 16:14 53.25456 8.47164 31412 ft 422 kts 247°
2026-05-06 16:14 53.24382 8.42598 31886 ft 422 kts 247°
2026-05-06 16:15 53.23314 8.38065 32470 ft 419 kts 247°
2026-05-06 16:15 53.22250 8.33556 33069 ft 416 kts 247°
2026-05-06 16:15 53.21191 8.29083 33667 ft 413 kts 247°
2026-05-06 16:15 53.20138 8.24643 34203 ft 411 kts 247°
2026-05-06 16:16 53.19090 8.20217 34653 ft 409 kts 247°
2026-05-06 16:16 53.18044 8.15812 35057 ft 409 kts 247°
2026-05-06 16:16 53.16994 8.11414 35432 ft 409 kts 247°
2026-05-06 16:16 53.15940 8.07017 35792 ft 408 kts 247°
2026-05-06 16:17 53.14884 8.02623 36159 ft 408 kts 247°
2026-05-06 16:17 53.13830 7.98239 36497 ft 408 kts 247°
2026-05-06 16:17 53.12775 7.93855 36834 ft 408 kts 247°
2026-05-06 16:17 53.11720 7.89475 37161 ft 408 kts 247°
2026-05-06 16:18 53.10661 7.85089 37480 ft 408 kts 247°
2026-05-06 16:18 53.09602 7.80716 37786 ft 408 kts 247°
2026-05-06 16:18 53.08540 7.76333 37889 ft 408 kts 247°
2026-05-06 16:18 53.07480 7.71966 37900 ft 407 kts 247°
2026-05-06 16:19 53.05363 7.63259 37894 ft 406 kts 247°
2026-05-06 16:19 53.03232 7.54574 37889 ft 406 kts 247°
2026-05-06 16:20 53.01099 7.45893 37893 ft 406 kts 247°
2026-05-06 16:20 52.98957 7.37211 37898 ft 406 kts 246°
2026-05-06 16:21 52.96808 7.28543 37890 ft 406 kts 246°
2026-05-06 16:21 52.94655 7.19877 37895 ft 406 kts 246°
2026-05-06 16:22 52.92493 7.11222 37901 ft 407 kts 246°
2026-05-06 16:22 52.90325 7.02567 37887 ft 407 kts 246°
2026-05-06 16:23 52.88148 6.93922 37892 ft 407 kts 246°
2026-05-06 16:23 52.85971 6.85284 37900 ft 407 kts 246°
2026-05-06 16:24 52.83783 6.76648 37907 ft 407 kts 246°
2026-05-06 16:24 52.81585 6.68021 37899 ft 407 kts 246°
2026-05-06 16:25 52.79385 6.59402 37897 ft 407 kts 246°
2026-05-06 16:25 52.77168 6.50790 37888 ft 407 kts 246°
2026-05-06 16:26 52.74953 6.42179 37891 ft 408 kts 246°
2026-05-06 16:26 52.72735 6.33571 37898 ft 408 kts 246°
2026-05-06 16:27 52.70504 6.24975 37901 ft 408 kts 246°
2026-05-06 16:27 52.68259 6.16383 37897 ft 408 kts 246°
2026-05-06 16:28 52.66016 6.07799 37904 ft 408 kts 246°
2026-05-06 16:28 52.64148 6.00660 37898 ft 408 kts 245°
2026-05-06 16:29 52.61526 5.90696 37906 ft 408 kts 245°
2026-05-06 16:29 52.59255 5.82124 37906 ft 409 kts 245°
2026-05-06 16:30 52.57734 5.76395 37911 ft 409 kts 245°
2026-05-06 16:30 52.55074 5.66386 37914 ft 409 kts 245°
2026-05-06 16:31 52.52788 5.57820 37918 ft 409 kts 245°
2026-05-06 16:31 52.50373 5.49362 37916 ft 408 kts 235°
2026-05-06 16:32 52.48515 5.45875 37915 ft 407 kts 219°
2026-05-06 16:32 52.46121 5.43416 37904 ft 408 kts 204°
2026-05-06 16:32 52.40829 5.40046 37896 ft 409 kts 202°
2026-05-06 16:33 52.35513 5.36712 37902 ft 410 kts 202°
2026-05-06 16:33 52.32844 5.35034 37543 ft 414 kts 202°
2026-05-06 16:34 52.27445 5.31647 36209 ft 414 kts 202°
2026-05-06 16:34 52.24773 5.29978 35725 ft 409 kts 202°
2026-05-06 16:34 52.22127 5.28324 35265 ft 405 kts 201°
2026-05-06 16:34 52.19513 5.26694 34812 ft 400 kts 201°
2026-05-06 16:35 52.16928 5.25085 34374 ft 395 kts 201°
2026-05-06 16:35 52.14370 5.23498 33954 ft 391 kts 201°
2026-05-06 16:35 52.11840 5.21930 33454 ft 387 kts 201°
2026-05-06 16:35 52.09370 5.20396 32937 ft 384 kts 201°
2026-05-06 16:36 52.06884 5.18848 32405 ft 381 kts 201°
2026-05-06 16:36 52.04385 5.17294 31890 ft 378 kts 201°
2026-05-06 16:36 52.01962 5.15791 31387 ft 376 kts 201°
2026-05-06 16:36 51.99525 5.14286 30900 ft 374 kts 200°
2026-05-06 16:37 51.97067 5.12774 30414 ft 372 kts 200°
2026-05-06 16:37 51.94657 5.11295 29950 ft 370 kts 200°
2026-05-06 16:37 51.92253 5.09817 29429 ft 368 kts 200°
2026-05-06 16:37 51.89867 5.08346 28929 ft 366 kts 200°
2026-05-06 16:38 51.87497 5.06885 28469 ft 364 kts 200°
2026-05-06 16:38 51.85139 5.05433 28011 ft 361 kts 200°
2026-05-06 16:38 51.82802 5.03999 27545 ft 359 kts 200°
2026-05-06 16:38 51.80467 5.02573 27081 ft 357 kts 200°
2026-05-06 16:39 51.78150 5.01161 26630 ft 355 kts 200°
2026-05-06 16:39 51.75847 4.99757 26178 ft 353 kts 200°
2026-05-06 16:39 51.73561 4.98360 25730 ft 350 kts 200°
2026-05-06 16:39 51.71287 4.96972 25279 ft 348 kts 200°
2026-05-06 16:40 51.69027 4.95595 24825 ft 346 kts 200°
2026-05-06 16:40 51.66783 4.94218 24369 ft 344 kts 202°
2026-05-06 16:40 51.64678 4.92373 23799 ft 346 kts 211°
2026-05-06 16:40 51.62621 4.90324 23160 ft 349 kts 211°
2026-05-06 16:41 51.60553 4.88257 22474 ft 351 kts 211°
2026-05-06 16:41 51.58475 4.86177 21805 ft 353 kts 211°
2026-05-06 16:41 51.56377 4.84083 21151 ft 356 kts 211°
2026-05-06 16:41 51.54268 4.81985 20507 ft 358 kts 211°
2026-05-06 16:42 51.52148 4.79877 19882 ft 359 kts 211°